Grand Rapids, MI

6:18 AM EDT on August 25, 2016 (GMT -0400)
Gerald R. Ford International

Weather History for KGRR - March, 2014

Change the Weather History Date:

Thursday, March 6, 2014

  Actual Average Record
Temperature  
Mean Temperature 15 °F 32 °F  
Max Temperature 26 °F 40 °F 68 °F (1973)
Min Temperature 4 °F 24 °F 0 °F (1920)
Degree Days  
Heating Degree Days 50 33  
Month to date heating degree days 310 203  
Since 1 July heating degree days 5591 4980  
Cooling Degree Days 0 0  
Month to date cooling degree days 0 0  
Year to date cooling degree days 0 0  
Moisture  
Dew Point 6 °F    
Average Humidity 69    
Maximum Humidity 87    
Minimum Humidity 50    
Precipitation  
Precipitation 0.00 in 0.07 in 0.68 in (1894)
Month to date precipitation 0.26 0.44  
Year to date precipitation 6.06 4.32  
Snow  
Snow 0.00 in 0.30 in 5.60 in (1971)
Month to date snowfall 2.9 2.3  
Since 1 July snowfall 110.7 67.1  
Snow Depth 19.00 in    
Sea Level Pressure  
Sea Level Pressure 30.37 in    
Wind  
Wind Speed 10 mph (East)    
Max Wind Speed 18 mph    
Max Gust Speed 23 mph    
Visibility 10 miles    
Events      
T = Trace of Precipitation, MM = Missing Value Source: NWS Daily Summary

Daily Weather History Graph

Daily Weather History Graph

Search for Another Location

Airport or City:

Trip Planner

Search our weather history database for the weather conditions in past years. The results will help you decide how hot, cold, wet, or windy it might be!

Date:

Astronomy

Mar. 06, 2014 Rise Set
Actual Time 7:09 AM EST 6:37 PM EST
Civil Twilight 6:41 AM EST 7:06 PM EST
Nautical Twilight 6:08 AM EST 7:38 PM EST
Astronomical Twilight 5:35 AM EST 8:11 PM EST
Moon 10:08 AM EST (3/6) No Moon Set
Length of Visible Light 12h 24m
Length of Day
11h 28m
Waxing Crescent, 32% of the Moon is Illuminated
Mar 6
Waxing Crescent
Mar 8
First Quarter
Mar 16
Full
Mar 23
Last Quarter
Mar 30
New

Hourly Weather History & Observations

Time (EST) Temp. Windchill Dew Point Humidity Pressure Visibility Wind Dir Wind Speed Gust Speed Precip Events Conditions
12:53 AM 10.9 °F -3.4 °F 5.0 °F 77% 30.53 in 10.0 mi East 11.5 mph - N/A   Clear
1:53 AM 10.9 °F -3.4 °F 6.1 °F 81% 30.53 in 10.0 mi East 11.5 mph - N/A   Clear
2:53 AM 10.0 °F -3.7 °F 5.0 °F 80% 30.53 in 10.0 mi East 10.4 mph - N/A   Clear
3:53 AM 8.1 °F -3.2 °F 3.9 °F 83% 30.52 in 10.0 mi ENE 6.9 mph - N/A   Clear
4:53 AM 6.1 °F -5.6 °F 1.9 °F 83% 30.51 in 10.0 mi ENE 6.9 mph - N/A   Clear
5:53 AM 6.1 °F -8.7 °F 1.9 °F 83% 30.50 in 10.0 mi ENE 10.4 mph - N/A   Clear
6:53 AM 3.9 °F -11.3 °F -0.0 °F 84% 30.48 in 10.0 mi East 10.4 mph - N/A   Clear
7:53 AM 5.0 °F -8.1 °F 1.0 °F 84% 30.47 in 8.0 mi East 8.1 mph - N/A   Clear
8:53 AM 10.0 °F -5.2 °F 3.0 °F 73% 30.46 in 10.0 mi East 12.7 mph - N/A   Partly Cloudy
9:53 AM 12.9 °F -3.4 °F 3.9 °F 67% 30.43 in 10.0 mi East 16.1 mph - N/A   Partly Cloudy
10:53 AM 15.1 °F 1.8 °F 5.0 °F 64% 30.42 in 10.0 mi East 11.5 mph - N/A   Clear
11:53 AM 18.0 °F 6.9 °F 6.1 °F 60% 30.42 in 10.0 mi East 9.2 mph - N/A   Clear
12:53 PM 21.0 °F 8.6 °F 8.1 °F 57% 30.39 in 10.0 mi East 12.7 mph - N/A   Partly Cloudy
1:53 PM 24.1 °F 13.1 °F 9.0 °F 53% 30.35 in 10.0 mi East 11.5 mph - N/A   Partly Cloudy
2:53 PM 26.1 °F 16.8 °F 10.0 °F 51% 30.30 in 10.0 mi East 9.2 mph - N/A   Partly Cloudy
3:53 PM 26.1 °F 16.2 °F 10.0 °F 51% 30.29 in 10.0 mi East 10.4 mph - N/A   Partly Cloudy
4:53 PM 26.1 °F 15.0 °F 10.0 °F 51% 30.27 in 10.0 mi East 12.7 mph - N/A   Partly Cloudy
5:53 PM 25.0 °F 13.6 °F 10.0 °F 53% 30.23 in 10.0 mi East 12.7 mph - N/A   Partly Cloudy
6:53 PM 24.1 °F 13.7 °F 9.0 °F 53% 30.22 in 10.0 mi East 10.4 mph - N/A   Scattered Clouds
7:53 PM 21.9 °F 14.5 °F 8.1 °F 55% 30.22 in 10.0 mi East 5.8 mph - N/A   Scattered Clouds
8:53 PM 19.0 °F 11.1 °F 6.1 °F 57% 30.21 in 10.0 mi East 5.8 mph - N/A   Scattered Clouds
9:53 PM 19.9 °F 13.4 °F 6.1 °F 55% 30.20 in 10.0 mi SE 4.6 mph - N/A   Scattered Clouds
10:53 PM 17.1 °F 5.0 °F 6.1 °F 62% 30.18 in 10.0 mi SSE 10.4 mph - N/A   Partly Cloudy
11:53 PM 18.0 °F 8.7 °F 8.1 °F 65% 30.17 in 10.0 mi South 6.9 mph - N/A   Partly Cloudy